�������l�o���
Date,Time,MP-1(��Sv/h),MP-2(��Sv/h),MP-3(��Sv/h),MP-4(��Sv/h),MP-5(��Sv/h),MP-6(��Sv/h),MP-7(��Sv/h),MP-8(��Sv/h),����,����(m/s),���J
2018/10/03,00:00,0.781,1.182,0.822,1.470,1.038,0.461,0.804,0.762,���k��,2.0,��
2018/10/03,00:10,0.780,1.183,0.821,1.470,1.041,0.462,0.803,0.760,��,1.7,��
2018/10/03,00:20,0.778,1.180,0.822,1.469,1.038,0.461,0.804,0.762,�k,0.6,��
2018/10/03,00:30,0.779,1.183,0.823,1.469,1.040,0.462,0.804,0.761,�k�k��,1.5,��
2018/10/03,00:40,0.779,1.181,0.822,1.472,1.038,0.462,0.804,0.762,�k��,3.5,�L
2018/10/03,00:50,0.780,1.180,0.821,1.472,1.038,0.462,0.803,0.763,�k�k��,4.0,��
2018/10/03,01:00,0.781,1.180,0.822,1.470,1.039,0.461,0.804,0.761,�k�k��,3.8,��
2018/10/03,01:10,0.782,1.180,0.822,1.471,1.041,0.462,0.804,0.762,�k�k��,3.8,�L
2018/10/03,01:20,0.780,1.182,0.824,1.473,1.040,0.462,0.804,0.763,�k��,2.9,�L
2018/10/03,01:30,0.781,1.180,0.823,1.471,1.037,0.462,0.802,0.760,�k�k��,3.1,�L
2018/10/03,01:40,0.782,1.180,0.822,1.472,1.039,0.462,0.802,0.761,�k��,4.3,�L
2018/10/03,01:50,0.779,1.181,0.822,1.471,1.040,0.463,0.802,0.760,�k��,4.9,��
2018/10/03,02:00,0.780,1.179,0.823,1.470,1.040,0.462,0.802,0.762,�k��,3.9,��
2018/10/03,02:10,0.783,1.181,0.823,1.471,1.040,0.460,0.801,0.762,�k��,3.9,��
2018/10/03,02:20,0.780,1.180,0.821,1.471,1.037,0.463,0.804,0.761,�k��,3.1,��
2018/10/03,02:30,0.779,1.183,0.823,1.470,1.039,0.463,0.804,0.762,�k��,2.0,�L
2018/10/03,02:40,0.779,1.181,0.824,1.472,1.039,0.462,0.804,0.762,�k��,1.5,��
2018/10/03,02:50,0.780,1.179,0.823,1.469,1.038,0.464,0.801,0.762,�k��,1.7,��
2018/10/03,03:00,0.781,1.178,0.822,1.473,1.038,0.462,0.803,0.762,�k��,2.0,��
2018/10/03,03:10,0.779,1.180,0.823,1.470,1.036,0.461,0.802,0.761,�k��,2.0,��
2018/10/03,03:20,0.779,1.180,0.820,1.469,1.037,0.463,0.803,0.761,�k��,2.6,��
2018/10/03,03:30,0.778,1.181,0.824,1.470,1.038,0.461,0.802,0.761,�k�k��,2.0,��
2018/10/03,03:40,0.780,1.180,0.822,1.470,1.039,0.463,0.803,0.761,�k�k��,2.3,��
2018/10/03,03:50,0.782,1.181,0.822,1.469,1.040,0.461,0.802,0.760,�k��,2.5,��
2018/10/03,04:00,0.779,1.178,0.822,1.469,1.039,0.460,0.803,0.761,�k��,2.8,��
2018/10/03,04:10,0.780,1.182,0.822,1.470,1.038,0.461,0.802,0.763,�k��,3.2,��
2018/10/03,04:20,0.781,1.180,0.824,1.470,1.037,0.461,0.802,0.761,�k��,4.3,��
2018/10/03,04:30,0.780,1.178,0.823,1.470,1.039,0.460,0.801,0.761,�k��,4.0,�L
2018/10/03,04:40,0.780,1.181,0.822,1.471,1.037,0.463,0.802,0.763,�k��,4.1,��
2018/10/03,04:50,0.779,1.180,0.822,1.472,1.038,0.460,0.802,0.762,�k��,4.2,��
2018/10/03,05:00,0.781,1.182,0.823,1.469,1.042,0.462,0.803,0.763,�k��,4.8,��
2018/10/03,05:10,0.781,1.181,0.823,1.471,1.041,0.462,0.801,0.762,�k��,4.3,��
2018/10/03,05:20,0.779,1.181,0.822,1.472,1.038,0.463,0.800,0.761,�k��,4.1,��
2018/10/03,05:30,0.778,1.181,0.822,1.469,1.038,0.461,0.801,0.762,�k��,4.7,��
2018/10/03,05:40,0.780,1.181,0.823,1.469,1.040,0.461,0.803,0.761,�k��,4.6,��
2018/10/03,05:50,0.779,1.181,0.821,1.470,1.037,0.460,0.803,0.761,�k��,4.6,��
2018/10/03,06:00,0.779,1.180,0.823,1.468,1.040,0.462,0.802,0.760,�k��,4.1,��
2018/10/03,06:10,0.780,1.180,0.823,1.471,1.039,0.461,0.804,0.761,�k��,4.2,��
2018/10/03,06:20,0.780,1.181,0.822,1.470,1.040,0.462,0.802,0.762,�k��,4.7,��
2018/10/03,06:30,0.780,1.181,0.821,1.469,1.038,0.461,0.802,0.760,�k��,5.3,��
2018/10/03,06:40,0.780,1.179,0.822,1.468,1.038,0.462,0.805,0.762,�k��,4.3,��
2018/10/03,06:50,0.782,1.180,0.822,1.469,1.039,0.462,0.803,0.761,�k��,4.4,��
2018/10/03,07:00,0.778,1.180,0.822,1.470,1.040,0.462,0.804,0.762,�k�k��,5.0,��
2018/10/03,07:10,0.780,1.181,0.824,1.469,1.040,0.461,0.803,0.761,�k�k��,4.9,��
2018/10/03,07:20,0.781,1.180,0.822,1.472,1.041,0.463,0.803,0.764,�k�k��,4.6,��
2018/10/03,07:30,0.779,1.183,0.824,1.473,1.042,0.462,0.802,0.761,�k,4.5,�L
2018/10/03,07:40,0.781,1.180,0.823,1.470,1.040,0.462,0.802,0.763,�k�k��,4.5,��
2018/10/03,07:50,0.780,1.181,0.822,1.472,1.040,0.461,0.803,0.761,�k�k��,5.9,��
2018/10/03,08:00,0.781,1.182,0.821,1.469,1.040,0.461,0.802,0.760,�k�k��,5.6,��
2018/10/03,08:10,0.779,1.182,0.822,1.472,1.040,0.461,0.802,0.761,�k,4.3,��
2018/10/03,08:20,0.781,1.180,0.825,1.471,1.040,0.461,0.801,0.760,�k�k��,4.7,��
2018/10/03,08:30,0.777,1.179,0.823,1.470,1.040,0.459,0.803,0.760,�k�k��,4.5,��
2018/10/03,08:40,0.779,1.179,0.822,1.468,1.040,0.460,0.802,0.759,�k�k��,3.8,��
2018/10/03,08:50,0.779,1.179,0.823,1.471,1.038,0.459,0.803,0.760,�k�k��,4.4,��
2018/10/03,09:00,0.777,1.178,0.821,1.472,1.041,0.460,0.802,0.760,�k�k��,4.2,��
2018/10/03,09:10,0.777,1.175,0.820,1.472,1.039,0.459,0.804,0.759,�k�k��,4.0,��
2018/10/03,09:20,0.780,1.171,0.822,1.473,1.039,0.462,0.803,0.759,�k,3.7,��
2018/10/03,09:30,0.776,1.175,0.821,1.470,1.038,0.459,0.802,0.759,�k,3.7,��
2018/10/03,09:40,0.778,1.174,0.820,1.469,1.038,0.459,0.804,0.759,�k,3.6,��
2018/10/03,09:50,0.778,1.175,0.822,1.469,1.037,0.458,0.805,0.758,�k�k��,5.0,��
2018/10/03,10:00,0.777,1.171,0.819,1.470,1.036,0.460,0.803,0.759,�k�k��,4.8,��
2018/10/03,10:10,0.779,1.171,0.820,1.472,1.038,0.459,0.806,0.760,�k�k��,5.5,��
2018/10/03,10:20,0.778,1.173,0.821,1.469,1.039,0.459,0.804,0.759,�k�k��,5.1,��
2018/10/03,10:30,0.778,1.173,0.821,1.470,1.039,0.460,0.804,0.759,�k�k��,5.0,��
2018/10/03,10:40,0.780,1.174,0.821,1.471,1.040,0.459,0.804,0.760,�k�k��,4.7,��
2018/10/03,10:50,0.779,1.175,0.813,1.470,1.040,0.459,0.803,0.759,�k�k��,4.8,��
2018/10/03,11:00,0.779,1.174,0.820,1.469,1.040,0.460,0.802,0.760,�k�k��,4.7,��
2018/10/03,11:10,0.779,1.177,0.820,1.471,1.040,0.462,0.805,0.760,�k��,4.5,��
2018/10/03,11:20,0.780,1.176,0.821,1.472,1.040,0.458,0.805,0.760,�k�k��,4.7,��
2018/10/03,11:30,0.780,1.176,0.821,1.471,1.040,0.460,0.802,0.760,�k�k��,4.7,��
2018/10/03,11:40,0.781,1.173,0.822,1.471,1.041,0.461,0.805,0.761,�k�k��,4.1,��
2018/10/03,11:50,0.781,1.176,0.821,1.472,1.039,0.460,0.803,0.760,�k�k��,4.3,��
2018/10/03,12:00,0.778,1.176,0.821,1.472,1.039,0.460,0.807,0.760,�k��,3.9,��
2018/10/03,12:10,0.781,1.177,0.823,1.470,1.042,0.459,0.805,0.760,�k�k��,4.2,��
2018/10/03,12:20,0.777,1.177,0.820,1.472,1.042,0.459,0.804,0.758,�k�k��,3.6,��
2018/10/03,12:30,0.779,1.175,0.823,1.473,1.043,0.460,0.805,0.761,�k�k��,4.5,��
2018/10/03,12:40,0.780,1.178,0.823,1.473,1.043,0.460,0.804,0.761,�k�k��,4.2,��
2018/10/03,12:50,0.781,1.176,0.822,1.474,1.042,0.459,0.804,0.761,�k�k��,4.0,��
2018/10/03,13:00,0.778,1.176,0.822,1.472,1.040,0.460,0.804,0.760,�k��,4.2,��
2018/10/03,13:10,0.779,1.180,0.823,1.471,1.042,0.459,0.805,0.760,�k��,4.0,��
2018/10/03,13:20,0.781,1.179,0.822,1.475,1.042,0.460,0.804,0.760,�k�k��,3.9,��
2018/10/03,13:30,0.781,1.177,0.821,1.473,1.043,0.460,0.804,0.758,�k��,4.0,��
2018/10/03,13:40,0.781,1.178,0.823,1.474,1.040,0.459,0.804,0.761,�k��,3.6,��
2018/10/03,13:50,0.782,1.175,0.821,1.474,1.045,0.459,0.805,0.760,�k��,3.3,��
2018/10/03,14:00,0.780,1.178,0.822,1.473,1.042,0.460,0.803,0.761,�k�k��,3.3,��
2018/10/03,14:10,0.780,1.175,0.824,1.474,1.043,0.462,0.805,0.760,�k�k��,3.4,��
2018/10/03,14:20,0.779,1.177,0.824,1.473,1.044,0.460,0.805,0.760,�k�k��,3.3,��
2018/10/03,14:30,0.782,1.177,0.823,1.474,1.043,0.460,0.807,0.761,�k��,3.2,��
2018/10/03,14:40,0.782,1.181,0.822,1.472,1.043,0.460,0.804,0.761,�k�k��,3.2,��
2018/10/03,14:50,0.782,1.180,0.825,1.473,1.045,0.463,0.804,0.761,�k�k��,4.4,��
2018/10/03,15:00,0.782,1.180,0.824,1.475,1.044,0.462,0.806,0.761,�k�k��,4.4,��
2018/10/03,15:10,0.782,1.179,0.823,1.474,1.044,0.462,0.804,0.760,�k�k��,4.1,��
2018/10/03,15:20,0.781,1.181,0.825,1.475,1.044,0.462,0.804,0.761,�k��,3.3,��
2018/10/03,15:30,0.779,1.180,0.823,1.474,1.044,0.460,0.805,0.762,�k�k��,4.0,��
2018/10/03,15:40,0.781,1.177,0.823,1.471,1.043,0.461,0.805,0.760,�k�k��,3.9,��
2018/10/03,15:50,0.780,1.181,0.823,1.475,1.045,0.460,0.806,0.760,�k�k��,3.6,��
2018/10/03,16:00,0.781,1.184,0.822,1.474,1.042,0.461,0.804,0.761,�k�k��,3.4,��
2018/10/03,16:10,0.781,1.181,0.823,1.475,1.044,0.461,0.805,0.759,�k�k��,3.5,��
2018/10/03,16:20,0.779,1.184,0.823,1.476,1.046,0.463,0.805,0.762,�k�k��,3.6,��
2018/10/03,16:30,0.780,1.187,0.824,1.474,1.045,0.462,0.805,0.761,�k�k��,3.3,��
2018/10/03,16:40,0.781,1.184,0.825,1.476,1.043,0.463,0.805,0.762,�k�k��,3.4,��
2018/10/03,16:50,0.781,1.186,0.824,1.474,1.045,0.463,0.804,0.761,�k�k��,2.8,��
2018/10/03,17:00,0.783,1.188,0.822,1.478,1.045,0.463,0.805,0.761,�k�k��,2.8,��
2018/10/03,17:10,0.780,1.187,0.823,1.473,1.042,0.462,0.805,0.761,�k�k��,2.5,��
2018/10/03,17:20,0.779,1.186,0.824,1.476,1.044,0.461,0.804,0.763,�k�k��,2.3,��
2018/10/03,17:30,0.781,1.186,0.825,1.475,1.045,0.462,0.805,0.762,�k�k��,2.0,��
2018/10/03,17:40,0.783,1.188,0.826,1.478,1.046,0.462,0.805,0.765,�k,1.7,��
2018/10/03,17:50,0.784,1.186,0.828,1.478,1.046,0.462,0.806,0.763,�k,2.0,��
2018/10/03,18:00,0.784,1.190,0.826,1.476,1.049,0.462,0.805,0.764,�k,2.0,��
2018/10/03,18:10,0.784,1.188,0.827,1.473,1.048,0.462,0.805,0.763,�k,1.5,��
2018/10/03,18:20,0.782,1.187,0.827,1.474,1.048,0.462,0.805,0.763,�k,1.4,��
2018/10/03,18:30,0.785,1.188,0.826,1.477,1.047,0.462,0.805,0.763,�k,1.9,��
2018/10/03,18:40,0.783,1.186,0.824,1.477,1.045,0.460,0.807,0.762,�k,1.7,��
2018/10/03,18:50,0.782,1.188,0.825,1.476,1.049,0.462,0.805,0.762,�k�k��,1.7,��
2018/10/03,19:00,0.781,1.188,0.826,1.476,1.046,0.463,0.804,0.762,�k�k��,2.3,��
2018/10/03,19:10,0.783,1.186,0.826,1.474,1.044,0.461,0.806,0.762,�k�k��,2.2,��
2018/10/03,19:20,0.783,1.187,0.825,1.474,1.048,0.462,0.807,0.763,�k�k��,2.2,��
2018/10/03,19:30,0.783,1.185,0.827,1.478,1.046,0.462,0.806,0.762,�k�k��,2.3,��
2018/10/03,19:40,0.784,1.184,0.827,1.475,1.047,0.461,0.806,0.763,�k��,2.5,��
2018/10/03,19:50,0.783,1.189,0.827,1.475,1.049,0.462,0.806,0.764,�k��,2.8,��
2018/10/03,20:00,0.781,1.187,0.823,1.477,1.046,0.462,0.805,0.762,�k��,2.6,��
2018/10/03,20:10,0.784,1.188,0.824,1.476,1.047,0.462,0.806,0.763,�k��,2.6,��
2018/10/03,20:20,0.779,1.187,0.828,1.476,1.046,0.461,0.806,0.763,�k��,2.6,��
2018/10/03,20:30,0.784,1.186,0.824,1.474,1.047,0.462,0.806,0.762,�k��,1.9,��
2018/10/03,20:40,0.780,1.189,0.825,1.475,1.047,0.463,0.804,0.760,���k��,1.2,��
2018/10/03,20:50,0.783,1.186,0.827,1.474,1.046,0.462,0.806,0.763,-,CALM,��
2018/10/03,21:00,0.782,1.185,0.826,1.476,1.046,0.461,0.804,0.764,���k��,0.6,��
2018/10/03,21:10,0.783,1.183,0.825,1.475,1.048,0.462,0.807,0.760,�k��,2.3,��
2018/10/03,21:20,0.783,1.188,0.826,1.475,1.046,0.461,0.807,0.762,�k��,1.7,��
2018/10/03,21:30,0.781,1.186,0.826,1.473,1.047,0.463,0.806,0.761,�k��,1.9,��
2018/10/03,21:40,0.781,1.186,0.823,1.475,1.047,0.462,0.804,0.763,�k�k��,2.5,��
2018/10/03,21:50,0.783,1.185,0.826,1.474,1.046,0.462,0.804,0.762,�k�k��,3.3,��
2018/10/03,22:00,0.783,1.186,0.827,1.474,1.045,0.462,0.805,0.762,�k�k��,4.3,��
2018/10/03,22:10,0.783,1.187,0.825,1.475,1.046,0.462,0.808,0.763,�k�k��,5.4,��
2018/10/03,22:20,0.783,1.185,0.826,1.476,1.046,0.462,0.806,0.762,�k�k��,5.4,��
2018/10/03,22:30,0.782,1.185,0.826,1.478,1.047,0.462,0.805,0.762,�k�k��,5.8,��
2018/10/03,22:40,0.781,1.185,0.826,1.475,1.045,0.463,0.806,0.761,�k�k��,6.1,��
2018/10/03,22:50,0.780,1.185,0.826,1.476,1.047,0.461,0.805,0.762,�k�k��,6.2,��
2018/10/03,23:00,0.781,1.186,0.825,1.476,1.047,0.463,0.804,0.761,�k�k��,6.2,��
2018/10/03,23:10,0.782,1.186,0.824,1.474,1.046,0.461,0.804,0.762,�k�k��,5.8,��
2018/10/03,23:20,0.783,1.186,0.826,1.475,1.047,0.464,0.805,0.762,�k�k��,6.1,��
2018/10/03,23:30,0.782,1.184,0.826,1.475,1.047,0.462,0.806,0.761,�k�k��,6.0,��
2018/10/03,23:40,0.782,1.185,0.826,1.475,1.043,0.462,0.806,0.762,�k�k��,6.0,��
2018/10/03,23:50,0.783,1.185,0.825,1.476,1.046,0.461,0.804,0.762,�k�k��,5.6,��
